Location: Newark
(34.0111°N, 88.4892°W)
Time: 08:49:02
(UTC+00:00)

STRAND 1 - Visible Passes

Search period start: 06 June 2020 00:00
Search period end: 16 June 2020 00:00
Orbit: 768 x 780 km, 98.5° (Epoch: 05 June)

Date Brightness Start Highest point End Pass type
(mag) Time Alt. Az. Time Alt. Az. Time Alt. Az.
06 Jun ? 02:06:56 10° N 02:11:28 32° WNW 02:16:00 10° SW visible
07 Jun ? 01:32:29 10° N 01:37:37 71° WNW 01:42:44 10° SSW visible
08 Jun ? 02:39:12 10° NNW 02:42:18 16° WNW 02:45:24 10° WSW visible
09 Jun ? 02:03:59 10° N 02:08:36 34° WNW 02:13:12 10° SW visible
10 Jun ? 01:29:35 10° N 01:34:44 76° WNW 01:39:52 10° SSW visible
11 Jun ? 02:36:09 10° NNW 02:39:26 17° WNW 02:42:44 10° WSW visible
12 Jun ? 02:01:02 10° N 02:05:44 36° WNW 02:10:24 10° SW visible
14 Jun ? 02:33:07 10° NNW 02:36:35 18° WNW 02:40:02 10° WSW visible
15 Jun ? 01:58:05 10° N 02:02:51 39° WNW 02:07:35 10° SW visible
